Flag for U.S.A. Weather past 2 weeks in Nashville, Tennessee, U.S.A.

Now
64 °F

Passing clouds.


Feels Like: 64 °F
Forecast: 52 / 75 °F
Wind: 3 mph from East

Location: Nashville International Airport


UV Index: 5 (Moderate)

Visibility: 10 mi


Pressure: 30.18 "Hg

Humidity: 50%

Dew point: 45 °F

Location of NashvilleLocation

Historic Weather in Nashville

°F

Nashville temperature yesterday

Maximum temperature yesterday: 68 °F (at 4:53 PM)
Minimum temperature yesterday: 43 °F (at 12:53 AM)
Average temperature yesterday: 57 °F

Past Weeks' High & Low Weather Summary

 TemperatureHumidityPressure
High81 °F (Apr 13, 2:53 PM)100% (Apr 7, 2:53 AM)30.39 "Hg (Apr 7, 2:53 AM)
Low31 °F (Apr 16, 5:53 AM)22% (Apr 9, 4:53 PM)29.51 "Hg (Apr 7, 12:53 PM)
Average58 °F60%30.01 "Hg
* Reported Apr 3 7:53 PM — Apr 18 7:53 PM, Nashville, Weather by CustomWeather, © 2014

Note: Actual official high and low records may vary slightly from our data, if they occured in-between our weather recording intervals... More about our weather records

Advertising

Historic Weather Conditions — Data for Previous 24 hours

 ConditionsComfort  
Time TempWeatherWind HumidityBarometerVisibility
7:53 PM
Apr 18
64 °FPassing clouds.3 mph50%30.18 "Hg10 mi
6:53 PM66 °FOvercast.3 mph49%30.17 "Hg10 mi
5:53 PM67 °FOvercast.7 mph45%30.17 "Hg10 mi
4:53 PM68 °FOvercast.8 mph47%30.18 "Hg10 mi
3:53 PM68 °FOvercast.7 mph45%30.19 "Hg10 mi
2:53 PM69 °FMore clouds than sun.No wind44%30.22 "Hg10 mi
1:53 PM68 °FCloudy.No wind40%30.25 "Hg10 mi
12:53 PM67 °FMostly cloudy.No wind42%30.27 "Hg10 mi
11:53 AM63 °FMostly cloudy.No wind43%30.29 "Hg10 mi
10:53 AM62 °FMostly cloudy.3 mph46%30.30 "Hg10 mi
9:53 AM62 °FMostly cloudy.5 mph46%30.30 "Hg10 mi
8:53 AM59 °FCloudy.3 mph58%30.29 "Hg10 mi
7:53 AM56 °FCloudy.No wind67%30.30 "Hg10 mi
6:53 AM55 °FMostly cloudy.No wind67%30.29 "Hg10 mi
5:53 AM54 °FOvercast.No wind67%30.27 "Hg10 mi
4:53 AM54 °FHigh level clouds.No wind69%30.26 "Hg10 mi
3:53 AM54 °FOvercast.No wind69%30.25 "Hg10 mi
2:53 AM55 °FOvercast.No wind62%30.27 "Hg10 mi
1:53 AM52 °FPassing clouds.No wind75%30.27 "Hg10 mi
12:53 AM53 °FOvercast.3 mph72%30.27 "Hg10 mi
11:53 PM
Apr 17
53 °FHigh level clouds.No wind66%30.25 "Hg10 mi
10:53 PM55 °FHigh level clouds.3 mph59%30.26 "Hg10 mi
9:53 PM57 °FHigh level clouds.3 mph53%30.27 "Hg10 mi
Weather by CustomWeather, © 2014

See weather overview